Regional Weather Roundup
Issued by NWS Boston, MA

Current Version | Previous Version | Graphics & Text | Print | Product List | Glossary Off
Versions: 1 2 3 4 5 6 7 8 9 10 11 12 13 14 15 16 17 18 19 20 21 22 23 24 25 26 27 28 29 30 31 32 33 34 35 36 37 38 39 40 41 42 43 44 45 46 47 48 49 50
000 ASUS41 KBOX 130110 RWRBOX REGIONAL WEATHER ROUNDUP NATIONAL WEATHER SERVICE TAUNTON MA 800 PM EST TUE DEC 12 2017 NOTE: "FAIR" INDICATES FEW OR NO CLOUDS BELOW 12,000 FEET WITH NO SIGNIFICANT WEATHER AND/OR OBSTRUCTIONS TO VISIBILITY. MAZALL-130200- EASTERN MASSACHUSETTS CITY SKY/WX TMP DP RH WIND PRES REMARKS BOSTON LGT RAIN 37 36 96 NW12 29.31R WCI 29 BEVERLY CLOUDY 35 34 96 NW8 29.29F FOG WCI 29 LAWRENCE LGT RAIN 35 32 88 W6 29.32F FOG WCI 30 BEDFORD CLOUDY 33 32 96 W6 29.31S FOG WCI 28 BLUE HILL N/A 35 34 96 NW12 29.28F WCI 27 NORWOOD LGT RAIN 39 37 92 W8 29.31F MARSHFIELD MOCLDY 41 41 100 W6 29.29S FOG PLYMOUTH CLOUDY 46 44 93 W13 29.29F FOG TAUNTON LGT RAIN 41 40 96 W8 29.30F NEW BEDFORD CLOUDY 43 32 65 W10 29.29F $$ MAZALL-130200- CAPE COD AND THE ISLANDS CITY SKY/WX TMP DP RH WIND PRES REMARKS FALMOUTH PTCLDY 45 45 100 SW7 29.29F HYANNIS CLOUDY 45 43 93 CALM 29.26F FOG CHATHAM PTCLDY 48 48 100 SW5 29.29F PROVINCETOWN CLOUDY 48 47 96 S7 29.28F NANTUCKET CLOUDY 47 47 100 CALM 29.29F FOG MARTHAS VNYRD MOCLDY N/A N/A N/A W9 29.28F $$ MAZALL-130200- CENTRAL AND WESTERN MASSACHUSETTS CITY SKY/WX TMP DP RH WIND PRES REMARKS WORCESTER CLOUDY 33 31 92 W8 29.29F WCI 26 FITCHBURG CLOUDY 35 34 96 CALM 29.32F FOG ORANGE CLOUDY 32 32 100 W5 29.33S WCI 27 SPRINGFIELD MOCLDY 33 32 94 CALM 29.36R WESTFIELD CLOUDY 35 29 78 NW13G25 29.37S WCI 26 NORTH ADAMS LGT SNOW 29 25 85 W12 29.41R FOG WCI 19 PITTSFIELD LGT SNOW 26 20 77 W9 29.38S WCI 17 $$ RIZALL-130200- RHODE ISLAND CITY SKY/WX TMP DP RH WIND PRES REMARKS PROVIDENCE CLOUDY 40 38 93 W9 29.33S NEWPORT PTCLDY 41 38 89 NW10 29.31F BLOCK ISLAND CLOUDY 41 36 82 NW15G21 29.34F SMITHFIELD CLOUDY 36 35 96 W7 29.31F WCI 30 WESTERLY CLEAR 40 36 86 W6 29.35F $$ CTZALL-130200- CONNECTICUT CITY SKY/WX TMP DP RH WIND PRES REMARKS BRADLEY INTL CLOUDY 35 33 92 NW12G18 29.38R WCI 27 HARTFORD CLOUDY 38 35 89 NW10 29.38S WCI 31 BRIDGEPORT PTCLDY 39 33 79 W12 29.39F WCI 32 DANBURY CLOUDY 36 31 82 W9G18 29.42R WCI 29 GROTON MOCLDY 39 35 86 W10 29.35F NEW HAVEN MOCLDY 40 35 83 NW9 29.38F CHESTER MOCLDY 37 36 93 W6 29.35F MERIDEN CLOUDY 37 35 92 CALM 29.38S WILLIMANTIC CLOUDY 37 35 92 CALM 29.35F OXFORD LGT RAIN 36 34 93 NW13G21 29.37S FOG WCI 27 $$ MEZ002-015-021-024-NHZ003-005-008-011-012-014-VTZ005-008-130200- NORTHERN NEW ENGLAND CITY SKY/WX TMP DP RH WIND PRES REMARKS PORTLAND ME LGT RAIN 31 31 100 W13G18 29.31F FOG WCI 21 BANGOR ME FRZ RAIN 28 27 96 N12 29.41F FOG WCI 18 CONCORD NH FLURRIES 28 25 88 NW7 29.33F WCI 21 MANCHESTER NH CLOUDY 30 28 92 NW7 29.31F WCI 23 NASHUA NH MOCLDY 31 30 96 NW9 29.33F WCI 23 PORTSMOUTH NH CLOUDY 31 30 96 W3 29.29S FOG JAFFREY NH CLOUDY 29 28 96 CALM 29.30F KEENE NH MIX PCPN 31 30 96 CALM 29.35S BURLINGTON VT LGT SNOW 29 26 89 NW20 29.39R VSB 1 WCI 16 MT. WASHINGTON SNOW 21 21 100 S39G51 N/A VSB 0 WCI 1 $$ NYZ052-076-130200- EASTERN NEW YORK CITY SKY/WX TMP DP RH WIND PRES REMARKS ALBANY CLOUDY 29 17 61 W21G32 29.47R WCI 16 NEW YORK CITY FLURRIES 37 29 72 NW25G36 29.47R WCI 25 $$ ANZALL-130200- MARINE OBSERVATIONS STATION/POSITION TIME TEMP WIND PRES VSBY WAVE AIR SEA DIR/SP/G HT/PER (UTC) (F) (DEG/KT/KT) (MB) (MI) (FT/S) BOSTON BUOY 2350 48 48 150/ 8/ 8 990.7 3/ 6 BUZZARDS BAY 0000 49 260/ 15/ 16 992.7F NANTUCKET SOUND 2350 48 45 190/ 8/ 10 992.7 2/ 4 MASS BAY-STELLWA 0004 47 47 170/ 6/ 6 990.9F 5/ 6 ISLE OF SHOALS 0000 45 180/ 2/ 3 991.5F S OF BLOCK IS 0043 53 N/A 5/ 6 $$ ......................KEY......................... SKY/WX - SKY CONDITION/PRESENT WEATHER TMP - TEMPERATURE IN FAHRENHEIT DWPT - DEWPOINT IN FAHRENHEIT RH - RELATIVE HUMIDITY IN PERCENT WIND - DIRECTION AND SPEED IN MPH PRES - MEAN SEA LEVEL PRESSURE IN INCHES OF HG WCI - WIND CHILL INDEX VSB - VISIBILITY IN MILES HX - HEAT INDEX TC - TEMPERATURE IN CELSIUS VRB - VARIABLE WIND DIRECTION N/A - NOT AVAILABLE

USA.gov is the U.S. government's official web portal to all federal, state and local government web resources and services.